{"data":{"norad_id":67643,"epoch":"2026-05-25T01:11:07.660608Z","epoch_age_seconds":77563,"freshness":"FRESH","line1":"1 67643U 26020AC  26145.04939422  .00015014  00000+0  55371-3 0  9991","line2":"2 67643  43.0040  68.3852 0001307 269.0554  91.0148 15.27597734 17790","mean_motion":15.27597734,"eccentricity":0.0001307,"inclination_deg":43.004,"raan_deg":68.3852,"arg_perigee_deg":269.0554,"mean_anomaly_deg":91.0148,"bstar":0.00055371,"rev_number":1779,"period_min":94.26565436369,"perigee_km":482.09924449521,"apogee_km":483.89274465999,"semimajor_km":6861.1329945776,"source":"CELESTRAK","updated_at":"2026-05-25T13:38:21.655352Z"}}